M I D A S
Marine Information and Data Acquisition System
Tripno 1766 of the Zeeleeuw from 2009-08-07 08:07:37 to 2009-08-07 14:16:39
Back to CruiseResearch ActivitiesStationsMapUnderway DataData graphs

EquipmentUnitsComment
TimeDGPSUTC
LatitudeDGPSDM.mWGS84
LongitudeDGPSDM.mWGS84
HeadingGyrodeg 
SOGDGPSknotsSpeed over ground
COGDGPSdegCourse over ground
DepthEcho soundermeters200 kHz
Missing or incorrect values are displayed as -999
Navigation data collected by the RV Zeeleeuw from 2009-08-07 08:09:01 to 2009-08-07 14:30:30
                                                                                    Next 1000 lines
Time Latitude Longitude Heading SOG COG Depth
2009-08-07 08:09:20 51°13.663 2°55.951 114.5 0.2 260 -999
2009-08-07 08:09:30 51°13.664 2°55.945 114.5 0.2 260 -999
2009-08-07 08:09:40 51°13.667 2°55.937 114.5 0.2 260 -999
2009-08-07 08:09:50 51°13.669 2°55.928 114.5 0.2 260 -999
2009-08-07 08:10:00 51°13.672 2°55.919 114.5 2.5 294 -999
2009-08-07 08:10:10 51°13.675 2°55.908 114.5 2.5 294 -999
2009-08-07 08:10:20 51°13.678 2°55.898 114.5 2.5 294 -999
2009-08-07 08:10:30 51°13.68 2°55.888 114.5 2.5 294 -999
2009-08-07 08:10:40 51°13.683 2°55.878 114.5 2.5 294 -999
2009-08-07 08:10:50 51°13.685 2°55.869 114.5 2.5 294 -999
2009-08-07 08:11:00 51°13.687 2°55.86 114.9 2.29 293 -999
2009-08-07 08:11:10 51°13.69 2°55.85 114.9 2.29 293 -999
2009-08-07 08:11:20 51°13.693 2°55.84 114.9 2.29 293 -999
2009-08-07 08:11:30 51°13.696 2°55.829 114.9 2.29 293 -999
2009-08-07 08:11:40 51°13.699 2°55.818 114.9 2.29 293 -999
2009-08-07 08:11:50 51°13.702 2°55.808 114.9 2.29 293 -999
2009-08-07 08:12:00 51°13.705 2°55.799 113.2 2.29 294 -999
2009-08-07 08:12:10 51°13.707 2°55.79 113.2 2.29 294 -999
2009-08-07 08:12:20 51°13.71 2°55.782 113.2 2.29 294 -999
2009-08-07 08:12:30 51°13.711 2°55.774 113.2 2.29 294 -999
2009-08-07 08:12:40 51°13.713 2°55.766 113.2 2.29 294 -999
2009-08-07 08:12:50 51°13.715 2°55.759 113.2 2.29 294 -999
2009-08-07 08:13:00 51°13.717 2°55.752 104.9 1.69 289 -999
2009-08-07 08:13:10 51°13.718 2°55.745 104.9 1.69 289 -999
2009-08-07 08:13:20 51°13.719 2°55.74 104.9 1.69 289 -999
2009-08-07 08:13:30 51°13.72 2°55.737 104.9 1.69 289 -999
2009-08-07 08:13:40 51°13.721 2°55.738 104.9 1.69 289 -999
2009-08-07 08:13:50 51°13.722 2°55.741 104.9 1.69 289 -999
2009-08-07 08:14:00 51°13.723 2°55.746 70.7 1.3 58 -999
2009-08-07 08:14:10 51°13.725 2°55.749 70.7 1.3 58 -999
2009-08-07 08:14:20 51°13.724 2°55.749 70.7 1.3 58 -999
2009-08-07 08:14:30 51°13.722 2°55.746 70.7 1.3 58 -999
2009-08-07 08:14:40 51°13.718 2°55.741 70.7 1.3 58 -999
2009-08-07 08:14:50 51°13.715 2°55.738 70.7 1.3 58 -999
2009-08-07 08:15:00 51°13.714 2°55.737 37.5 0.1 170 -999
2009-08-07 08:15:10 51°13.717 2°55.739 37.5 0.1 170 -999
2009-08-07 08:15:20 51°13.722 2°55.741 37.5 0.1 170 -999
2009-08-07 08:15:30 51°13.729 2°55.74 37.5 0.1 170 -999
2009-08-07 08:15:40 51°13.737 2°55.737 37.5 0.1 170 -999
2009-08-07 08:15:50 51°13.744 2°55.731 37.5 0.1 170 -999
2009-08-07 08:16:00 51°13.751 2°55.724 327.6 2.79 329 -999
2009-08-07 08:16:10 51°13.757 2°55.717 327.6 2.79 329 -999
2009-08-07 08:16:20 51°13.764 2°55.709 327.6 2.79 329 -999
2009-08-07 08:16:30 51°13.77 2°55.7 327.6 2.79 329 -999
2009-08-07 08:16:40 51°13.778 2°55.691 327.6 2.79 329 -999
2009-08-07 08:16:50 51°13.787 2°55.681 327.6 2.79 329 -999
2009-08-07 08:17:00 51°13.796 2°55.671 325.6 4.09 326 -999
2009-08-07 08:17:10 51°13.806 2°55.66 325.6 4.09 326 -999
2009-08-07 08:17:20 51°13.818 2°55.65 325.6 4.09 326 -999
2009-08-07 08:17:30 51°13.83 2°55.639 325.6 4.09 326 -999
2009-08-07 08:17:40 51°13.842 2°55.628 325.6 4.09 326 -999
2009-08-07 08:17:50 51°13.856 2°55.617 325.6 4.09 326 -999
2009-08-07 08:18:00 51°13.869 2°55.606 334.3 5.59 334 -999
2009-08-07 08:18:10 51°13.884 2°55.595 334.3 5.59 334 -999
2009-08-07 08:18:20 51°13.898 2°55.584 334.3 5.59 334 -999
2009-08-07 08:18:30 51°13.913 2°55.572 334.3 5.59 334 -999
2009-08-07 08:18:40 51°13.928 2°55.561 334.3 5.59 334 -999
2009-08-07 08:18:50 51°13.943 2°55.55 334.3 5.59 334 -999
2009-08-07 08:19:00 51°13.958 2°55.539 336.8 6.09 335 -999
2009-08-07 08:19:10 51°13.973 2°55.527 336.8 6.09 335 -999
2009-08-07 08:19:20 51°13.989 2°55.515 336.8 6.09 335 -999
2009-08-07 08:19:30 51°14.004 2°55.503 336.8 6.09 335 -999
2009-08-07 08:19:40 51°14.019 2°55.491 336.8 6.09 335 -999
2009-08-07 08:19:50 51°14.034 2°55.479 336.8 6.09 335 -999
2009-08-07 08:20:00 51°14.049 2°55.468 335.8 6.09 334 -999
2009-08-07 08:20:10 51°14.064 2°55.456 335.8 6.09 334 -999
2009-08-07 08:20:20 51°14.08 2°55.444 335.8 6.09 334 -999
2009-08-07 08:20:30 51°14.095 2°55.432 335.8 6.09 334 -999
2009-08-07 08:20:40 51°14.111 2°55.42 335.8 6.09 334 -999
2009-08-07 08:20:50 51°14.126 2°55.407 335.8 6.09 334 -999
2009-08-07 08:21:00 51°14.143 2°55.395 335.3 6.59 334 -999
2009-08-07 08:21:10 51°14.16 2°55.381 335.3 6.59 334 -999
2009-08-07 08:21:20 51°14.177 2°55.364 335.3 6.59 334 -999
2009-08-07 08:21:30 51°14.194 2°55.345 335.3 6.59 334 -999
2009-08-07 08:21:40 51°14.211 2°55.323 335.3 6.59 334 -999
2009-08-07 08:21:50 51°14.228 2°55.299 335.3 6.59 334 -999
2009-08-07 08:22:00 51°14.244 2°55.273 318.6 8.4 314 -999
2009-08-07 08:22:10 51°14.261 2°55.245 318.6 8.4 314 -999
2009-08-07 08:22:20 51°14.277 2°55.215 318.6 8.4 314 -999
2009-08-07 08:22:30 51°14.292 2°55.183 318.6 8.4 314 -999
2009-08-07 08:22:40 51°14.309 2°55.151 318.6 8.4 314 -999
2009-08-07 08:22:50 51°14.326 2°55.116 318.6 8.4 314 -999
2009-08-07 08:23:00 51°14.344 2°55.081 309.6 10.4 309 -999
2009-08-07 08:23:10 51°14.362 2°55.045 309.6 10.4 309 -999
2009-08-07 08:23:20 51°14.381 2°55.009 309.6 10.4 309 -999
2009-08-07 08:23:30 51°14.397 2°54.97 309.6 10.4 309 -999
2009-08-07 08:23:40 51°14.414 2°54.929 309.6 10.4 309 -999
2009-08-07 08:23:50 51°14.431 2°54.888 309.6 10.4 309 -999
2009-08-07 08:24:00 51°14.45 2°54.849 312.1 11.19 309 -999
2009-08-07 08:24:10 51°14.47 2°54.811 312.1 11.19 309 -999
2009-08-07 08:24:20 51°14.492 2°54.776 312.1 11.19 309 -999
2009-08-07 08:24:30 51°14.516 2°54.743 312.1 11.19 309 -999
2009-08-07 08:24:40 51°14.54 2°54.712 312.1 11.19 309 -999
2009-08-07 08:24:50 51°14.565 2°54.685 312.1 11.19 309 -999
2009-08-07 08:25:00 51°14.59 2°54.657 333.8 11.09 324 -999
2009-08-07 08:25:10 51°14.616 2°54.629 333.8 11.09 324 -999
2009-08-07 08:25:20 51°14.641 2°54.601 333.8 11.09 324 -999
2009-08-07 08:25:30 51°14.666 2°54.573 333.8 11.09 324 -999
2009-08-07 08:25:40 51°14.691 2°54.545 333.8 11.09 324 -999
2009-08-07 08:25:50 51°14.717 2°54.517 333.8 11.09 324 -999
2009-08-07 08:26:00 51°14.742 2°54.489 331.6 11.09 325 -999
2009-08-07 08:26:10 51°14.767 2°54.461 331.6 11.09 325 -999
2009-08-07 08:26:20 51°14.793 2°54.433 331.6 11.09 325 -999
2009-08-07 08:26:30 51°14.818 2°54.406 331.6 11.09 325 -999
2009-08-07 08:26:40 51°14.844 2°54.38 331.6 11.09 325 -999
2009-08-07 08:26:50 51°14.87 2°54.353 331.6 11.09 325 -999
2009-08-07 08:27:00 51°14.895 2°54.327 333.8 11 328 -999
2009-08-07 08:27:10 51°14.921 2°54.302 333.8 11 328 -999
2009-08-07 08:27:20 51°14.947 2°54.276 333.8 11 328 -999
2009-08-07 08:27:30 51°14.972 2°54.251 333.8 11 328 -999
2009-08-07 08:27:40 51°14.998 2°54.225 333.8 11 328 -999
2009-08-07 08:27:50 51°15.023 2°54.198 333.8 11 328 -999
2009-08-07 08:28:00 51°15.049 2°54.173 334.6 10.9 328 -999
2009-08-07 08:28:10 51°15.074 2°54.147 334.6 10.9 328 -999
2009-08-07 08:28:20 51°15.1 2°54.121 334.6 10.9 328 -999
2009-08-07 08:28:30 51°15.125 2°54.095 334.6 10.9 328 -999
2009-08-07 08:28:40 51°15.151 2°54.068 334.6 10.9 328 -999
2009-08-07 08:28:50 51°15.176 2°54.041 334.6 10.9 328 -999
2009-08-07 08:29:00 51°15.202 2°54.015 333.8 11 327 -999
2009-08-07 08:29:10 51°15.227 2°53.988 333.8 11 327 -999
2009-08-07 08:29:20 51°15.252 2°53.962 333.8 11 327 -999
2009-08-07 08:29:30 51°15.278 2°53.936 333.8 11 327 -999
2009-08-07 08:29:40 51°15.303 2°53.909 333.8 11 327 -999
2009-08-07 08:29:50 51°15.328 2°53.881 333.8 11 327 -999
2009-08-07 08:30:00 51°15.354 2°53.854 332.8 11 326 -999
2009-08-07 08:30:10 51°15.378 2°53.826 332.8 11 326 -999
2009-08-07 08:30:20 51°15.403 2°53.798 332.8 11 326 -999
2009-08-07 08:30:30 51°15.428 2°53.771 332.8 11 326 -999
2009-08-07 08:30:40 51°15.454 2°53.745 332.8 11 326 -999
2009-08-07 08:30:50 51°15.479 2°53.718 332.8 11 326 -999
2009-08-07 08:31:00 51°15.505 2°53.692 335.3 11 327 -999
2009-08-07 08:31:10 51°15.53 2°53.665 335.3 11 327 -999
2009-08-07 08:31:20 51°15.556 2°53.639 335.3 11 327 -999
2009-08-07 08:31:30 51°15.582 2°53.614 335.3 11 327 -999
2009-08-07 08:31:40 51°15.608 2°53.59 335.3 11 327 -999
2009-08-07 08:31:50 51°15.635 2°53.566 335.3 11 327 -999
2009-08-07 08:32:00 51°15.661 2°53.543 339.8 10.9 332 -999
2009-08-07 08:32:10 51°15.688 2°53.52 339.8 10.9 332 -999
2009-08-07 08:32:20 51°15.716 2°53.499 339.8 10.9 332 -999
2009-08-07 08:32:30 51°15.742 2°53.476 339.8 10.9 332 -999
2009-08-07 08:32:40 51°15.769 2°53.454 339.8 10.9 332 -999
2009-08-07 08:32:50 51°15.796 2°53.432 339.8 10.9 332 -999
2009-08-07 08:33:00 51°15.823 2°53.41 342.8 10.9 333 -999
2009-08-07 08:33:10 51°15.849 2°53.387 342.8 10.9 333 -999
2009-08-07 08:33:20 51°15.876 2°53.363 342.8 10.9 333 -999
2009-08-07 08:33:30 51°15.902 2°53.341 342.8 10.9 333 -999
2009-08-07 08:33:40 51°15.929 2°53.319 342.8 10.9 333 -999
2009-08-07 08:33:50 51°15.956 2°53.297 342.8 10.9 333 -999
2009-08-07 08:34:00 51°15.982 2°53.275 343.8 10.8 331 -999
2009-08-07 08:34:10 51°16.009 2°53.253 343.8 10.8 331 -999
2009-08-07 08:34:20 51°16.036 2°53.231 343.8 10.8 331 -999
2009-08-07 08:34:30 51°16.062 2°53.21 343.8 10.8 331 -999
2009-08-07 08:34:40 51°16.089 2°53.19 343.8 10.8 331 -999
2009-08-07 08:34:50 51°16.116 2°53.168 343.8 10.8 331 -999
2009-08-07 08:35:00 51°16.144 2°53.147 345 10.9 333 -999
2009-08-07 08:35:10 51°16.171 2°53.126 345 10.9 333 -999
2009-08-07 08:35:20 51°16.198 2°53.104 345 10.9 333 -999
2009-08-07 08:35:30 51°16.225 2°53.084 345 10.9 333 -999
2009-08-07 08:35:40 51°16.252 2°53.065 345 10.9 333 -999
2009-08-07 08:35:50 51°16.279 2°53.046 345 10.9 333 -999
2009-08-07 08:36:00 51°16.307 2°53.027 344.3 10.8 337 -999
2009-08-07 08:36:10 51°16.334 2°53.008 344.3 10.8 337 -999
2009-08-07 08:36:20 51°16.362 2°52.988 344.3 10.8 337 -999
2009-08-07 08:36:30 51°16.389 2°52.969 344.3 10.8 337 -999
2009-08-07 08:36:40 51°16.417 2°52.95 344.3 10.8 337 -999
2009-08-07 08:36:50 51°16.444 2°52.93 344.3 10.8 337 -999
2009-08-07 08:37:00 51°16.472 2°52.911 343.8 10.9 336 -999
2009-08-07 08:37:10 51°16.499 2°52.891 343.8 10.9 336 -999
2009-08-07 08:37:20 51°16.527 2°52.871 343.8 10.9 336 -999
2009-08-07 08:37:30 51°16.554 2°52.852 343.8 10.9 336 -999
2009-08-07 08:37:40 51°16.581 2°52.833 343.8 10.9 336 -999
2009-08-07 08:37:50 51°16.608 2°52.813 343.8 10.9 336 -999
2009-08-07 08:38:00 51°16.635 2°52.793 342.6 10.8 335 -999
2009-08-07 08:38:10 51°16.663 2°52.775 342.6 10.8 335 -999
2009-08-07 08:38:20 51°16.69 2°52.756 342.6 10.8 335 -999
2009-08-07 08:38:30 51°16.718 2°52.737 342.6 10.8 335 -999
2009-08-07 08:38:40 51°16.745 2°52.718 342.6 10.8 335 -999
2009-08-07 08:38:50 51°16.773 2°52.7 342.6 10.8 335 -999
2009-08-07 08:39:00 51°16.8 2°52.681 343.6 10.59 337 -999
2009-08-07 08:39:10 51°16.827 2°52.663 343.6 10.59 337 -999
2009-08-07 08:39:20 51°16.854 2°52.646 343.6 10.59 337 -999
2009-08-07 08:39:30 51°16.882 2°52.63 343.6 10.59 337 -999
2009-08-07 08:39:40 51°16.909 2°52.615 343.6 10.59 337 -999
2009-08-07 08:39:50 51°16.936 2°52.6 343.6 10.59 337 -999
2009-08-07 08:40:00 51°16.963 2°52.585 348.1 10.4 341 -999
2009-08-07 08:40:10 51°16.991 2°52.571 348.1 10.4 341 -999
2009-08-07 08:40:20 51°17.018 2°52.558 348.1 10.4 341 -999
2009-08-07 08:40:30 51°17.046 2°52.545 348.1 10.4 341 -999
2009-08-07 08:40:40 51°17.074 2°52.531 348.1 10.4 341 -999
2009-08-07 08:40:50 51°17.102 2°52.517 348.1 10.4 341 -999
2009-08-07 08:41:00 51°17.129 2°52.504 349.6 10.4 343 -999
2009-08-07 08:41:10 51°17.157 2°52.49 349.6 10.4 343 -999
2009-08-07 08:41:20 51°17.184 2°52.476 349.6 10.4 343 -999
2009-08-07 08:41:30 51°17.212 2°52.463 349.6 10.4 343 -999
2009-08-07 08:41:40 51°17.24 2°52.449 349.6 10.4 343 -999
2009-08-07 08:41:50 51°17.268 2°52.436 349.6 10.4 343 -999
2009-08-07 08:42:00 51°17.296 2°52.422 350.1 10.5 343 -999
2009-08-07 08:42:10 51°17.323 2°52.408 350.1 10.5 343 -999
2009-08-07 08:42:20 51°17.351 2°52.394 350.1 10.5 343 -999
2009-08-07 08:42:30 51°17.379 2°52.379 350.1 10.5 343 -999
2009-08-07 08:42:40 51°17.407 2°52.364 350.1 10.5 343 -999
2009-08-07 08:42:50 51°17.434 2°52.351 350.1 10.5 343 -999
2009-08-07 08:43:00 51°17.463 2°52.341 352.6 10.3 347 -999
2009-08-07 08:43:10 51°17.491 2°52.333 352.6 10.3 347 -999
2009-08-07 08:43:20 51°17.519 2°52.327 352.6 10.3 347 -999
2009-08-07 08:43:30 51°17.547 2°52.323 352.6 10.3 347 -999
2009-08-07 08:43:40 51°17.575 2°52.32 352.6 10.3 347 -999
2009-08-07 08:43:50 51°17.603 2°52.318 352.6 10.3 347 -999
2009-08-07 08:44:00 51°17.631 2°52.319 4.2 10 2 -999
2009-08-07 08:44:10 51°17.658 2°52.32 4.2 10 2 -999
2009-08-07 08:44:20 51°17.686 2°52.321 4.2 10 2 -999
2009-08-07 08:44:30 51°17.714 2°52.323 4.2 10 2 -999
2009-08-07 08:44:40 51°17.742 2°52.326 4.2 10 2 -999
2009-08-07 08:44:50 51°17.77 2°52.329 4.2 10 2 -999
2009-08-07 08:45:00 51°17.797 2°52.333 10.8 10 5 -999
2009-08-07 08:45:10 51°17.825 2°52.337 10.8 10 5 -999
2009-08-07 08:45:20 51°17.852 2°52.343 10.8 10 5 -999
2009-08-07 08:45:30 51°17.879 2°52.349 10.8 10 5 -999
2009-08-07 08:45:40 51°17.906 2°52.357 10.8 10 5 -999
2009-08-07 08:45:50 51°17.933 2°52.366 10.8 10 5 -999
2009-08-07 08:46:00 51°17.96 2°52.377 18.1 9.8 16 -999
2009-08-07 08:46:10 51°17.986 2°52.39 18.1 9.8 16 -999
2009-08-07 08:46:20 51°18.011 2°52.405 18.1 9.8 16 -999
2009-08-07 08:46:30 51°18.035 2°52.423 18.1 9.8 16 -999
2009-08-07 08:46:40 51°18.06 2°52.442 18.1 9.8 16 -999
2009-08-07 08:46:50 51°18.084 2°52.462 18.1 9.8 16 -999
2009-08-07 08:47:00 51°18.108 2°52.482 31.3 9.8 27 -999
2009-08-07 08:47:10 51°18.132 2°52.503 31.3 9.8 27 -999
2009-08-07 08:47:20 51°18.155 2°52.524 31.3 9.8 27 -999
2009-08-07 08:47:30 51°18.179 2°52.545 31.3 9.8 27 -999
2009-08-07 08:47:40 51°18.204 2°52.565 31.3 9.8 27 -999
2009-08-07 08:47:50 51°18.228 2°52.585 31.3 9.8 27 -999
2009-08-07 08:48:00 51°18.252 2°52.605 31.3 9.9 28 -999
2009-08-07 08:48:10 51°18.276 2°52.626 31.3 9.9 28 -999
2009-08-07 08:48:20 51°18.301 2°52.646 31.3 9.9 28 -999
2009-08-07 08:48:30 51°18.325 2°52.666 31.3 9.9 28 -999
2009-08-07 08:48:40 51°18.349 2°52.686 31.3 9.9 28 -999
2009-08-07 08:48:50 51°18.374 2°52.705 31.3 9.9 28 -999
2009-08-07 08:49:00 51°18.398 2°52.724 31.1 9.69 25 -999
2009-08-07 08:49:10 51°18.422 2°52.743 31.1 9.69 25 -999
2009-08-07 08:49:20 51°18.446 2°52.762 31.1 9.69 25 -999
2009-08-07 08:49:30 51°18.471 2°52.781 31.1 9.69 25 -999
2009-08-07 08:49:40 51°18.495 2°52.8 31.1 9.69 25 -999
2009-08-07 08:49:50 51°18.52 2°52.818 31.1 9.69 25 -999
2009-08-07 08:50:00 51°18.545 2°52.837 30.6 9.8 24 -999
2009-08-07 08:50:10 51°18.569 2°52.856 30.6 9.8 24 -999
2009-08-07 08:50:20 51°18.593 2°52.875 30.6 9.8 24 -999
2009-08-07 08:50:30 51°18.617 2°52.893 30.6 9.8 24 -999
2009-08-07 08:50:40 51°18.642 2°52.911 30.6 9.8 24 -999
2009-08-07 08:50:50 51°18.666 2°52.929 30.6 9.8 24 -999
2009-08-07 08:51:00 51°18.691 2°52.947 29.5 9.8 24 -999
2009-08-07 08:51:10 51°18.716 2°52.965 29.5 9.8 24 -999
2009-08-07 08:51:20 51°18.74 2°52.983 29.5 9.8 24 -999
2009-08-07 08:51:30 51°18.765 2°53.002 29.5 9.8 24 -999
2009-08-07 08:51:40 51°18.789 2°53.02 29.5 9.8 24 -999
2009-08-07 08:51:50 51°18.813 2°53.039 29.5 9.8 24 -999
2009-08-07 08:52:00 51°18.838 2°53.057 30.3 9.69 25 -999
2009-08-07 08:52:10 51°18.862 2°53.075 30.3 9.69 25 -999
2009-08-07 08:52:20 51°18.887 2°53.093 30.3 9.69 25 -999
2009-08-07 08:52:30 51°18.911 2°53.11 30.3 9.69 25 -999
2009-08-07 08:52:40 51°18.936 2°53.128 30.3 9.69 25 -999
2009-08-07 08:52:50 51°18.961 2°53.145 30.3 9.69 25 -999
2009-08-07 08:53:00 51°18.985 2°53.163 29.5 9.69 23 -999
2009-08-07 08:53:10 51°19.01 2°53.181 29.5 9.69 23 -999
2009-08-07 08:53:20 51°19.034 2°53.198 29.5 9.69 23 -999
2009-08-07 08:53:30 51°19.059 2°53.215 29.5 9.69 23 -999
2009-08-07 08:53:40 51°19.083 2°53.233 29.5 9.69 23 -999
2009-08-07 08:53:50 51°19.107 2°53.25 29.5 9.69 23 -999
2009-08-07 08:54:00 51°19.132 2°53.267 29 9.8 23 -999
2009-08-07 08:54:10 51°19.157 2°53.284 29 9.8 23 -999
2009-08-07 08:54:20 51°19.182 2°53.302 29 9.8 23 -999
2009-08-07 08:54:30 51°19.207 2°53.319 29 9.8 23 -999
2009-08-07 08:54:40 51°19.232 2°53.337 29 9.8 23 -999
2009-08-07 08:54:50 51°19.257 2°53.356 29 9.8 23 -999
2009-08-07 08:55:00 51°19.281 2°53.376 29.8 9.8 26 -999
2009-08-07 08:55:10 51°19.306 2°53.394 29.8 9.8 26 -999
2009-08-07 08:55:20 51°19.33 2°53.414 29.8 9.8 26 -999
2009-08-07 08:55:30 51°19.355 2°53.432 29.8 9.8 26 -999
2009-08-07 08:55:40 51°19.38 2°53.45 29.8 9.8 26 -999
2009-08-07 08:55:50 51°19.405 2°53.468 29.8 9.8 26 -999
2009-08-07 08:56:00 51°19.429 2°53.487 29.3 9.9 25 -999
2009-08-07 08:56:10 51°19.454 2°53.505 29.3 9.9 25 -999
2009-08-07 08:56:20 51°19.479 2°53.523 29.3 9.9 25 -999
2009-08-07 08:56:30 51°19.504 2°53.542 29.3 9.9 25 -999
2009-08-07 08:56:40 51°19.529 2°53.561 29.3 9.9 25 -999
2009-08-07 08:56:50 51°19.554 2°53.578 29.3 9.9 25 -999
2009-08-07 08:57:00 51°19.579 2°53.597 29.6 9.9 24 -999
2009-08-07 08:57:10 51°19.604 2°53.615 29.6 9.9 24 -999
2009-08-07 08:57:20 51°19.629 2°53.633 29.6 9.9 24 -999
2009-08-07 08:57:30 51°19.654 2°53.651 29.6 9.9 24 -999
2009-08-07 08:57:40 51°19.679 2°53.67 29.6 9.9 24 -999
2009-08-07 08:57:50 51°19.704 2°53.69 29.6 9.9 24 -999
2009-08-07 08:58:00 51°19.729 2°53.708 30 9.9 25 -999
2009-08-07 08:58:10 51°19.754 2°53.726 30 9.9 25 -999
2009-08-07 08:58:20 51°19.779 2°53.744 30 9.9 25 -999
2009-08-07 08:58:30 51°19.804 2°53.762 30 9.9 25 -999
2009-08-07 08:58:40 51°19.829 2°53.78 30 9.9 25 -999
2009-08-07 08:58:50 51°19.854 2°53.799 30 9.9 25 -999
2009-08-07 08:59:00 51°19.879 2°53.817 29.1 10 26 -999
2009-08-07 08:59:10 51°19.905 2°53.836 29.1 10 26 -999
2009-08-07 08:59:20 51°19.93 2°53.854 29.1 10 26 -999
2009-08-07 08:59:30 51°19.955 2°53.872 29.1 10 26 -999
2009-08-07 08:59:40 51°19.98 2°53.89 29.1 10 26 -999
2009-08-07 08:59:50 51°20.005 2°53.908 29.1 10 26 -999
2009-08-07 09:00:00 51°20.031 2°53.926 29.1 9.9 25 -999
2009-08-07 09:00:10 51°20.055 2°53.945 29.1 9.9 25 -999
2009-08-07 09:00:20 51°20.08 2°53.964 29.1 9.9 25 -999
2009-08-07 09:00:30 51°20.105 2°53.982 29.1 9.9 25 -999
2009-08-07 09:00:40 51°20.13 2°54.001 29.1 9.9 25 -999
2009-08-07 09:00:50 51°20.155 2°54.02 29.1 9.9 25 -999
2009-08-07 09:01:00 51°20.18 2°54.037 29.8 9.8 24 -999
2009-08-07 09:01:10 51°20.205 2°54.056 29.8 9.8 24 -999
2009-08-07 09:01:20 51°20.229 2°54.073 29.8 9.8 24 -999
2009-08-07 09:01:30 51°20.254 2°54.091 29.8 9.8 24 -999
2009-08-07 09:01:40 51°20.278 2°54.11 29.8 9.8 24 -999
2009-08-07 09:01:50 51°20.303 2°54.128 29.8 9.8 24 -999
2009-08-07 09:02:00 51°20.328 2°54.145 29.1 9.9 24 -999
2009-08-07 09:02:10 51°20.353 2°54.162 29.1 9.9 24 -999
2009-08-07 09:02:20 51°20.378 2°54.18 29.1 9.9 24 -999
2009-08-07 09:02:30 51°20.404 2°54.198 29.1 9.9 24 -999
2009-08-07 09:02:40 51°20.429 2°54.215 29.1 9.9 24 -999
2009-08-07 09:02:50 51°20.453 2°54.233 29.1 9.9 24 -999
2009-08-07 09:03:00 51°20.478 2°54.251 28.3 9.69 23 -999
2009-08-07 09:03:10 51°20.503 2°54.268 28.3 9.69 23 -999
2009-08-07 09:03:20 51°20.528 2°54.286 28.3 9.69 23 -999
2009-08-07 09:03:30 51°20.553 2°54.303 28.3 9.69 23 -999
2009-08-07 09:03:40 51°20.577 2°54.321 28.3 9.69 23 -999
2009-08-07 09:03:50 51°20.602 2°54.338 28.3 9.69 23 -999
2009-08-07 09:04:00 51°20.627 2°54.356 29.6 9.9 23 -999
2009-08-07 09:04:10 51°20.652 2°54.373 29.6 9.9 23 -999
2009-08-07 09:04:20 51°20.677 2°54.391 29.6 9.9 23 -999
2009-08-07 09:04:30 51°20.702 2°54.409 29.6 9.9 23 -999
2009-08-07 09:04:40 51°20.727 2°54.426 29.6 9.9 23 -999
2009-08-07 09:04:50 51°20.752 2°54.443 29.6 9.9 23 -999
2009-08-07 09:05:00 51°20.776 2°54.461 29.5 9.69 25 -999
2009-08-07 09:05:10 51°20.801 2°54.478 29.5 9.69 25 -999
2009-08-07 09:05:20 51°20.826 2°54.494 29.5 9.69 25 -999
2009-08-07 09:05:30 51°20.85 2°54.511 29.5 9.69 25 -999
2009-08-07 09:05:40 51°20.875 2°54.528 29.5 9.69 25 -999
2009-08-07 09:05:50 51°20.9 2°54.545 29.5 9.69 25 -999
2009-08-07 09:06:00 51°20.925 2°54.562 29.1 9.69 23 -999
2009-08-07 09:06:10 51°20.949 2°54.579 29.1 9.69 23 -999
2009-08-07 09:06:20 51°20.974 2°54.596 29.1 9.69 23 -999
2009-08-07 09:06:30 51°20.999 2°54.612 29.1 9.69 23 -999
2009-08-07 09:06:40 51°21.023 2°54.629 29.1 9.69 23 -999
2009-08-07 09:06:50 51°21.048 2°54.645 29.1 9.69 23 -999
2009-08-07 09:07:00 51°21.073 2°54.662 28.5 9.69 23 -999
2009-08-07 09:07:10 51°21.098 2°54.679 28.5 9.69 23 -999
2009-08-07 09:07:20 51°21.123 2°54.696 28.5 9.69 23 -999
2009-08-07 09:07:30 51°21.148 2°54.712 28.5 9.69 23 -999
2009-08-07 09:07:40 51°21.173 2°54.729 28.5 9.69 23 -999
2009-08-07 09:07:50 51°21.198 2°54.746 28.5 9.69 23 -999
2009-08-07 09:08:00 51°21.223 2°54.762 29.1 9.8 21 -999
2009-08-07 09:08:10 51°21.247 2°54.779 29.1 9.8 21 -999
2009-08-07 09:08:20 51°21.272 2°54.795 29.1 9.8 21 -999
2009-08-07 09:08:30 51°21.297 2°54.811 29.1 9.8 21 -999
2009-08-07 09:08:40 51°21.321 2°54.828 29.1 9.8 21 -999
2009-08-07 09:08:50 51°21.346 2°54.845 29.1 9.8 21 -999
2009-08-07 09:09:00 51°21.371 2°54.862 30.3 9.69 24 -999
2009-08-07 09:09:10 51°21.395 2°54.879 30.3 9.69 24 -999
2009-08-07 09:09:20 51°21.419 2°54.896 30.3 9.69 24 -999
2009-08-07 09:09:30 51°21.443 2°54.913 30.3 9.69 24 -999
2009-08-07 09:09:40 51°21.468 2°54.929 30.3 9.69 24 -999
2009-08-07 09:09:50 51°21.493 2°54.945 30.3 9.69 24 -999
2009-08-07 09:10:00 51°21.517 2°54.961 29.1 9.59 20 -999
2009-08-07 09:10:10 51°21.542 2°54.978 29.1 9.59 20 -999
2009-08-07 09:10:20 51°21.566 2°54.994 29.1 9.59 20 -999
2009-08-07 09:10:30 51°21.591 2°55.011 29.1 9.59 20 -999
2009-08-07 09:10:40 51°21.615 2°55.027 29.1 9.59 20 -999
2009-08-07 09:10:50 51°21.64 2°55.043 29.1 9.59 20 -999
2009-08-07 09:11:00 51°21.665 2°55.06 29.5 9.69 23 -999
2009-08-07 09:11:10 51°21.69 2°55.077 29.5 9.69 23 -999
2009-08-07 09:11:20 51°21.714 2°55.094 29.5 9.69 23 -999
2009-08-07 09:11:30 51°21.739 2°55.11 29.5 9.69 23 -999
2009-08-07 09:11:40 51°21.764 2°55.128 29.5 9.69 23 -999
2009-08-07 09:11:50 51°21.789 2°55.144 29.5 9.69 23 -999
2009-08-07 09:12:00 51°21.814 2°55.161 29.8 9.8 22 -999
2009-08-07 09:12:10 51°21.838 2°55.178 29.8 9.8 22 -999
2009-08-07 09:12:20 51°21.863 2°55.195 29.8 9.8 22 -999
2009-08-07 09:12:30 51°21.888 2°55.212 29.8 9.8 22 -999
2009-08-07 09:12:40 51°21.913 2°55.23 29.8 9.8 22 -999
2009-08-07 09:12:50 51°21.938 2°55.246 29.8 9.8 22 -999
2009-08-07 09:13:00 51°21.963 2°55.263 29.1 9.8 20 -999
2009-08-07 09:13:10 51°21.988 2°55.279 29.1 9.8 20 -999
2009-08-07 09:13:20 51°22.013 2°55.297 29.1 9.8 20 -999
2009-08-07 09:13:30 51°22.037 2°55.316 29.1 9.8 20 -999
2009-08-07 09:13:40 51°22.061 2°55.335 29.1 9.8 20 -999
2009-08-07 09:13:50 51°22.084 2°55.355 29.1 9.8 20 -999
2009-08-07 09:14:00 51°22.107 2°55.376 34.1 9.59 30 -999
2009-08-07 09:14:10 51°22.131 2°55.397 34.1 9.59 30 -999
2009-08-07 09:14:20 51°22.154 2°55.418 34.1 9.59 30 -999
2009-08-07 09:14:30 51°22.177 2°55.44 34.1 9.59 30 -999
2009-08-07 09:14:40 51°22.2 2°55.461 34.1 9.59 30 -999
2009-08-07 09:14:50 51°22.224 2°55.482 34.1 9.59 30 -999
2009-08-07 09:15:00 51°22.247 2°55.504 34.7 9.69 29 -999
2009-08-07 09:15:10 51°22.27 2°55.525 34.7 9.69 29 -999
2009-08-07 09:15:20 51°22.294 2°55.546 34.7 9.69 29 -999
2009-08-07 09:15:30 51°22.317 2°55.568 34.7 9.69 29 -999
2009-08-07 09:15:40 51°22.341 2°55.589 34.7 9.69 29 -999
2009-08-07 09:15:50 51°22.365 2°55.609 34.7 9.69 29 -999
2009-08-07 09:16:00 51°22.388 2°55.631 34.6 9.69 30 -999
2009-08-07 09:16:10 51°22.412 2°55.652 34.6 9.69 30 -999
2009-08-07 09:16:20 51°22.435 2°55.673 34.6 9.69 30 -999
2009-08-07 09:16:30 51°22.459 2°55.693 34.6 9.69 30 -999
2009-08-07 09:16:40 51°22.482 2°55.714 34.6 9.69 30 -999
2009-08-07 09:16:50 51°22.506 2°55.734 34.6 9.69 30 -999
2009-08-07 09:17:00 51°22.529 2°55.755 35.6 9.69 28 -999
2009-08-07 09:17:10 51°22.553 2°55.775 35.6 9.69 28 -999
2009-08-07 09:17:20 51°22.576 2°55.796 35.6 9.69 28 -999
2009-08-07 09:17:30 51°22.599 2°55.817 35.6 9.69 28 -999
2009-08-07 09:17:40 51°22.623 2°55.839 35.6 9.69 28 -999
2009-08-07 09:17:50 51°22.646 2°55.861 35.6 9.69 28 -999
2009-08-07 09:18:00 51°22.669 2°55.882 35 9.69 28 -999
2009-08-07 09:18:10 51°22.692 2°55.903 35 9.69 28 -999
2009-08-07 09:18:20 51°22.716 2°55.925 35 9.69 28 -999
2009-08-07 09:18:30 51°22.739 2°55.946 35 9.69 28 -999
2009-08-07 09:18:40 51°22.762 2°55.968 35 9.69 28 -999
2009-08-07 09:18:50 51°22.786 2°55.99 35 9.69 28 -999
2009-08-07 09:19:00 51°22.81 2°56.011 33.5 9.9 30 -999
2009-08-07 09:19:10 51°22.834 2°56.031 33.5 9.9 30 -999
2009-08-07 09:19:20 51°22.858 2°56.051 33.5 9.9 30 -999
2009-08-07 09:19:30 51°22.883 2°56.07 33.5 9.9 30 -999
2009-08-07 09:19:40 51°22.908 2°56.088 33.5 9.9 30 -999
2009-08-07 09:19:50 51°22.933 2°56.105 33.5 9.9 30 -999
2009-08-07 09:20:00 51°22.959 2°56.122 27.1 10 23 -999
2009-08-07 09:20:10 51°22.984 2°56.138 27.1 10 23 -999
2009-08-07 09:20:20 51°23.01 2°56.155 27.1 10 23 -999
2009-08-07 09:20:30 51°23.036 2°56.172 27.1 10 23 -999
2009-08-07 09:20:40 51°23.062 2°56.189 27.1 10 23 -999
2009-08-07 09:20:50 51°23.088 2°56.206 27.1 10 23 -999
2009-08-07 09:21:00 51°23.114 2°56.222 26.8 10.09 21 -999
2009-08-07 09:21:10 51°23.139 2°56.239 26.8 10.09 21 -999
2009-08-07 09:21:20 51°23.165 2°56.256 26.8 10.09 21 -999
2009-08-07 09:21:30 51°23.19 2°56.274 26.8 10.09 21 -999
2009-08-07 09:21:40 51°23.216 2°56.291 26.8 10.09 21 -999
2009-08-07 09:21:50 51°23.242 2°56.308 26.8 10.09 21 -999
2009-08-07 09:22:00 51°23.267 2°56.325 27 9.9 23 -999
2009-08-07 09:22:10 51°23.292 2°56.343 27 9.9 23 -999
2009-08-07 09:22:20 51°23.318 2°56.361 27 9.9 23 -999
2009-08-07 09:22:30 51°23.343 2°56.379 27 9.9 23 -999
2009-08-07 09:22:40 51°23.368 2°56.397 27 9.9 23 -999
2009-08-07 09:22:50 51°23.394 2°56.414 27 9.9 23 -999
2009-08-07 09:23:00 51°23.419 2°56.432 26.8 10 25 -999
2009-08-07 09:23:10 51°23.445 2°56.451 26.8 10 25 -999
2009-08-07 09:23:20 51°23.47 2°56.469 26.8 10 25 -999
2009-08-07 09:23:30 51°23.496 2°56.487 26.8 10 25 -999
2009-08-07 09:23:40 51°23.521 2°56.506 26.8 10 25 -999
2009-08-07 09:23:50 51°23.547 2°56.524 26.8 10 25 -999
2009-08-07 09:24:00 51°23.572 2°56.542 26.6 10.09 26 -999
2009-08-07 09:24:10 51°23.598 2°56.561 26.6 10.09 26 -999
2009-08-07 09:24:20 51°23.624 2°56.58 26.6 10.09 26 -999
2009-08-07 09:24:30 51°23.649 2°56.598 26.6 10.09 26 -999
2009-08-07 09:24:40 51°23.675 2°56.616 26.6 10.09 26 -999
2009-08-07 09:24:50 51°23.7 2°56.635 26.6 10.09 26 -999
2009-08-07 09:25:00 51°23.725 2°56.654 28 9.9 24 -999
2009-08-07 09:25:10 51°23.75 2°56.672 28 9.9 24 -999
2009-08-07 09:25:20 51°23.775 2°56.691 28 9.9 24 -999
2009-08-07 09:25:30 51°23.8 2°56.709 28 9.9 24 -999
2009-08-07 09:25:40 51°23.825 2°56.727 28 9.9 24 -999
2009-08-07 09:25:50 51°23.85 2°56.746 28 9.9 24 -999
2009-08-07 09:26:00 51°23.875 2°56.764 26.8 9.9 25 -999
2009-08-07 09:26:10 51°23.9 2°56.782 26.8 9.9 25 -999
2009-08-07 09:26:20 51°23.926 2°56.8 26.8 9.9 25 -999
2009-08-07 09:26:30 51°23.95 2°56.818 26.8 9.9 25 -999
2009-08-07 09:26:40 51°23.975 2°56.835 26.8 9.9 25 -999
2009-08-07 09:26:50 51°23.999 2°56.852 26.8 9.9 25 -999
2009-08-07 09:27:00 51°24.024 2°56.87 27.1 9.69 24 -999
2009-08-07 09:27:10 51°24.048 2°56.887 27.1 9.69 24 -999
2009-08-07 09:27:20 51°24.072 2°56.905 27.1 9.69 24 -999
2009-08-07 09:27:30 51°24.097 2°56.924 27.1 9.69 24 -999
2009-08-07 09:27:40 51°24.121 2°56.942 27.1 9.69 24 -999
2009-08-07 09:27:50 51°24.146 2°56.96 27.1 9.69 24 -999
2009-08-07 09:28:00 51°24.171 2°56.977 27.3 9.8 24 -999
2009-08-07 09:28:10 51°24.196 2°56.995 27.3 9.8 24 -999
2009-08-07 09:28:20 51°24.221 2°57.012 27.3 9.8 24 -999
2009-08-07 09:28:30 51°24.245 2°57.029 27.3 9.8 24 -999
2009-08-07 09:28:40 51°24.27 2°57.046 27.3 9.8 24 -999
2009-08-07 09:28:50 51°24.295 2°57.063 27.3 9.8 24 -999
2009-08-07 09:29:00 51°24.32 2°57.081 27.5 9.69 25 -999
2009-08-07 09:29:10 51°24.344 2°57.098 27.5 9.69 25 -999
2009-08-07 09:29:20 51°24.369 2°57.115 27.5 9.69 25 -999
2009-08-07 09:29:30 51°24.393 2°57.132 27.5 9.69 25 -999
2009-08-07 09:29:40 51°24.417 2°57.15 27.5 9.69 25 -999
2009-08-07 09:29:50 51°24.441 2°57.167 27.5 9.69 25 -999
2009-08-07 09:30:00 51°24.466 2°57.183 27.3 9.69 22 -999
2009-08-07 09:30:10 51°24.491 2°57.2 27.3 9.69 22 -999
2009-08-07 09:30:20 51°24.516 2°57.216 27.3 9.69 22 -999
2009-08-07 09:30:30 51°24.54 2°57.232 27.3 9.69 22 -999
2009-08-07 09:30:40 51°24.565 2°57.25 27.3 9.69 22 -999
2009-08-07 09:30:50 51°24.589 2°57.267 27.3 9.69 22 -999
2009-08-07 09:31:00 51°24.613 2°57.285 27.6 9.69 25 -999
2009-08-07 09:31:10 51°24.638 2°57.301 27.6 9.69 25 -999
2009-08-07 09:31:20 51°24.663 2°57.317 27.6 9.69 25 -999
2009-08-07 09:31:30 51°24.688 2°57.333 27.6 9.69 25 -999
2009-08-07 09:31:40 51°24.712 2°57.35 27.6 9.69 25 -999
2009-08-07 09:31:50 51°24.737 2°57.366 27.6 9.69 25 -999
2009-08-07 09:32:00 51°24.762 2°57.383 27 9.69 23 -999
2009-08-07 09:32:10 51°24.787 2°57.399 27 9.69 23 -999
2009-08-07 09:32:20 51°24.811 2°57.417 27 9.69 23 -999
2009-08-07 09:32:30 51°24.836 2°57.433 27 9.69 23 -999
2009-08-07 09:32:40 51°24.86 2°57.45 27 9.69 23 -999
2009-08-07 09:32:50 51°24.884 2°57.467 27 9.69 23 -999
2009-08-07 09:33:00 51°24.909 2°57.483 26.6 9.5 23 -999
2009-08-07 09:33:10 51°24.933 2°57.499 26.6 9.5 23 -999
2009-08-07 09:33:20 51°24.958 2°57.516 26.6 9.5 23 -999
2009-08-07 09:33:30 51°24.982 2°57.533 26.6 9.5 23 -999
2009-08-07 09:33:40 51°25.007 2°57.549 26.6 9.5 23 -999
2009-08-07 09:33:50 51°25.031 2°57.566 26.6 9.5 23 -999
2009-08-07 09:34:00 51°25.056 2°57.584 27.1 9.69 24 -999
2009-08-07 09:34:10 51°25.081 2°57.6 27.1 9.69 24 -999
2009-08-07 09:34:20 51°25.106 2°57.617 27.1 9.69 24 -999
2009-08-07 09:34:30 51°25.13 2°57.634 27.1 9.69 24 -999
2009-08-07 09:34:40 51°25.155 2°57.651 27.1 9.69 24 -999
2009-08-07 09:34:50 51°25.179 2°57.668 27.1 9.69 24 -999
2009-08-07 09:35:00 51°25.204 2°57.685 27.3 9.69 24 -999
2009-08-07 09:35:10 51°25.229 2°57.702 27.3 9.69 24 -999
2009-08-07 09:35:20 51°25.253 2°57.719 27.3 9.69 24 -999
2009-08-07 09:35:30 51°25.278 2°57.736 27.3 9.69 24 -999
2009-08-07 09:35:40 51°25.303 2°57.752 27.3 9.69 24 -999
2009-08-07 09:35:50 51°25.328 2°57.768 27.3 9.69 24 -999
2009-08-07 09:36:00 51°25.352 2°57.785 26.6 9.69 21 -999
2009-08-07 09:36:10 51°25.377 2°57.801 26.6 9.69 21 -999
2009-08-07 09:36:20 51°25.402 2°57.818 26.6 9.69 21 -999
2009-08-07 09:36:30 51°25.427 2°57.834 26.6 9.69 21 -999
2009-08-07 09:36:40 51°25.451 2°57.851 26.6 9.69 21 -999
2009-08-07 09:36:50 51°25.476 2°57.868 26.6 9.69 21 -999
2009-08-07 09:37:00 51°25.501 2°57.886 27.3 9.69 25 -999
2009-08-07 09:37:10 51°25.526 2°57.903 27.3 9.69 25 -999
2009-08-07 09:37:20 51°25.551 2°57.92 27.3 9.69 25 -999
2009-08-07 09:37:30 51°25.576 2°57.938 27.3 9.69 25 -999
2009-08-07 09:37:40 51°25.601 2°57.956 27.3 9.69 25 -999
2009-08-07 09:37:50 51°25.625 2°57.973 27.3 9.69 25 -999
2009-08-07 09:38:00 51°25.65 2°57.99 27 9.8 23 -999
2009-08-07 09:38:10 51°25.675 2°58.007 27 9.8 23 -999
2009-08-07 09:38:20 51°25.7 2°58.024 27 9.8 23 -999
2009-08-07 09:38:30 51°25.725 2°58.042 27 9.8 23 -999
2009-08-07 09:38:40 51°25.75 2°58.059 27 9.8 23 -999
2009-08-07 09:38:50 51°25.775 2°58.077 27 9.8 23 -999
2009-08-07 09:39:00 51°25.799 2°58.094 27.6 9.69 24 -999
2009-08-07 09:39:10 51°25.824 2°58.112 27.6 9.69 24 -999
2009-08-07 09:39:20 51°25.848 2°58.13 27.6 9.69 24 -999
2009-08-07 09:39:30 51°25.873 2°58.146 27.6 9.69 24 -999
2009-08-07 09:39:40 51°25.897 2°58.164 27.6 9.69 24 -999
2009-08-07 09:39:50 51°25.922 2°58.182 27.6 9.69 24 -999
2009-08-07 09:40:00 51°25.947 2°58.199 26.8 9.8 23 -999
2009-08-07 09:40:10 51°25.972 2°58.216 26.8 9.8 23 -999
2009-08-07 09:40:20 51°25.997 2°58.234 26.8 9.8 23 -999
2009-08-07 09:40:30 51°26.022 2°58.251 26.8 9.8 23 -999
2009-08-07 09:40:40 51°26.046 2°58.269 26.8 9.8 23 -999
2009-08-07 09:40:50 51°26.072 2°58.286 26.8 9.8 23 -999
2009-08-07 09:41:00 51°26.096 2°58.305 27.1 9.8 25 -999
2009-08-07 09:41:10 51°26.121 2°58.323 27.1 9.8 25 -999
2009-08-07 09:41:20 51°26.145 2°58.341 27.1 9.8 25 -999
2009-08-07 09:41:30 51°26.17 2°58.359 27.1 9.8 25 -999
2009-08-07 09:41:40 51°26.196 2°58.377 27.1 9.8 25 -999
2009-08-07 09:41:50 51°26.22 2°58.395 27.1 9.8 25 -999
2009-08-07 09:42:00 51°26.245 2°58.414 28.1 9.69 25 -999
2009-08-07 09:42:10 51°26.269 2°58.432 28.1 9.69 25 -999
2009-08-07 09:42:20 51°26.293 2°58.45 28.1 9.69 25 -999
2009-08-07 09:42:30 51°26.318 2°58.467 28.1 9.69 25 -999
2009-08-07 09:42:40 51°26.343 2°58.485 28.1 9.69 25 -999
2009-08-07 09:42:50 51°26.368 2°58.503 28.1 9.69 25 -999
2009-08-07 09:43:00 51°26.392 2°58.522 27.3 9.8 27 -999
2009-08-07 09:43:10 51°26.417 2°58.54 27.3 9.8 27 -999
2009-08-07 09:43:20 51°26.441 2°58.559 27.3 9.8 27 -999
2009-08-07 09:43:30 51°26.466 2°58.577 27.3 9.8 27 -999
2009-08-07 09:43:40 51°26.491 2°58.595 27.3 9.8 27 -999
2009-08-07 09:43:50 51°26.516 2°58.612 27.3 9.8 27 -999
2009-08-07 09:44:00 51°26.541 2°58.63 26.6 9.9 26 -999
2009-08-07 09:44:10 51°26.566 2°58.648 26.6 9.9 26 -999
2009-08-07 09:44:20 51°26.589 2°58.67 26.6 9.9 26 -999
2009-08-07 09:44:30 51°26.612 2°58.693 26.6 9.9 26 -999
2009-08-07 09:44:40 51°26.635 2°58.717 26.6 9.9 26 -999
2009-08-07 09:44:50 51°26.656 2°58.743 26.6 9.9 26 -999
2009-08-07 09:45:00 51°26.677 2°58.772 38.1 9.9 40 -999
2009-08-07 09:45:10 51°26.699 2°58.798 38.1 9.9 40 -999
2009-08-07 09:45:20 51°26.72 2°58.826 38.1 9.9 40 -999
2009-08-07 09:45:30 51°26.741 2°58.854 38.1 9.9 40 -999
2009-08-07 09:45:40 51°26.762 2°58.881 38.1 9.9 40 -999
2009-08-07 09:45:50 51°26.782 2°58.91 38.1 9.9 40 -999
2009-08-07 09:46:00 51°26.802 2°58.937 40.5 9.4 40 -999
2009-08-07 09:46:10 51°26.822 2°58.963 40.5 9.4 40 -999
2009-08-07 09:46:20 51°26.842 2°58.989 40.5 9.4 40 -999
2009-08-07 09:46:30 51°26.862 2°59.015 40.5 9.4 40 -999
2009-08-07 09:46:40 51°26.881 2°59.04 40.5 9.4 40 -999
2009-08-07 09:46:50 51°26.901 2°59.066 40.5 9.4 40 -999
2009-08-07 09:47:00 51°26.92 2°59.092 40.7 9 39 -999
2009-08-07 09:47:10 51°26.939 2°59.118 40.7 9 39 -999
2009-08-07 09:47:20 51°26.958 2°59.144 40.7 9 39 -999
2009-08-07 09:47:30 51°26.976 2°59.172 40.7 9 39 -999
2009-08-07 09:47:40 51°26.993 2°59.202 40.7 9 39 -999
2009-08-07 09:47:50 51°27.009 2°59.232 40.7 9 39 -999
2009-08-07 09:48:00 51°27.024 2°59.265 50.2 9.19 56 -999
2009-08-07 09:48:10 51°27.039 2°59.297 50.2 9.19 56 -999
2009-08-07 09:48:20 51°27.052 2°59.326 50.2 9.19 56 -999
2009-08-07 09:48:30 51°27.063 2°59.352 50.2 9.19 56 -999
2009-08-07 09:48:40 51°27.072 2°59.375 50.2 9.19 56 -999
2009-08-07 09:48:50 51°27.08 2°59.396 50.2 9.19 56 -999
2009-08-07 09:49:00 51°27.087 2°59.415 53.7 4.9 59 -999
2009-08-07 09:49:10 51°27.093 2°59.433 53.7 4.9 59 -999
2009-08-07 09:49:20 51°27.098 2°59.447 53.7 4.9 59 -999
2009-08-07 09:49:30 51°27.103 2°59.46 53.7 4.9 59 -999
2009-08-07 09:49:40 51°27.106 2°59.471 53.7 4.9 59 -999
2009-08-07 09:49:50 51°27.109 2°59.481 53.7 4.9 59 -999
2009-08-07 09:50:00 51°27.111 2°59.49 51.5 2 72 -999
2009-08-07 09:50:10 51°27.112 2°59.497 51.5 2 72 -999
2009-08-07 09:50:20 51°27.113 2°59.504 51.5 2 72 -999
2009-08-07 09:50:30 51°27.114 2°59.511 51.5 2 72 -999
2009-08-07 09:50:40 51°27.115 2°59.516 51.5 2 72 -999
2009-08-07 09:50:50 51°27.116 2°59.521 51.5 2 72 -999
2009-08-07 09:51:00 51°27.117 2°59.525 44 0.9 62 -999
2009-08-07 09:51:10 51°27.118 2°59.528 44 0.9 62 -999
2009-08-07 09:51:20 51°27.12 2°59.532 44 0.9 62 -999
2009-08-07 09:51:30 51°27.122 2°59.535 44 0.9 62 -999
2009-08-07 09:51:40 51°27.124 2°59.54 44 0.9 62 -999
2009-08-07 09:51:50 51°27.126 2°59.546 44 0.9 62 -999
2009-08-07 09:52:00 51°27.126 2°59.553 54.2 1.69 80 -999
2009-08-07 09:52:10 51°27.127 2°59.561 54.2 1.69 80 -999
2009-08-07 09:52:20 51°27.128 2°59.569 54.2 1.69 80 -999
2009-08-07 09:52:30 51°27.13 2°59.577 54.2 1.69 80 -999
2009-08-07 09:52:40 51°27.132 2°59.584 54.2 1.69 80 -999
2009-08-07 09:52:50 51°27.133 2°59.592 54.2 1.69 80 -999
2009-08-07 09:53:00 51°27.135 2°59.601 55.3 2.2 80 -999
2009-08-07 09:53:10 51°27.136 2°59.611 55.3 2.2 80 -999
2009-08-07 09:53:20 51°27.138 2°59.62 55.3 2.2 80 -999
2009-08-07 09:53:30 51°27.14 2°59.629 55.3 2.2 80 -999
2009-08-07 09:53:40 51°27.142 2°59.638 55.3 2.2 80 -999
2009-08-07 09:53:50 51°27.144 2°59.647 55.3 2.2 80 -999
2009-08-07 09:54:00 51°27.147 2°59.656 52.6 2.2 67 -999
2009-08-07 09:54:10 51°27.148 2°59.665 52.6 2.2 67 -999
2009-08-07 09:54:20 51°27.15 2°59.675 52.6 2.2 67 -999
2009-08-07 09:54:30 51°27.153 2°59.684 52.6 2.2 67 -999
2009-08-07 09:54:40 51°27.155 2°59.691 52.6 2.2 67 -999
2009-08-07 09:54:50 51°27.156 2°59.697 52.6 2.2 67 -999
2009-08-07 09:55:00 51°27.157 2°59.701 47.2 0.9 80 -999
2009-08-07 09:55:10 51°27.156 2°59.704 47.2 0.9 80 -999
2009-08-07 09:55:20 51°27.155 2°59.706 47.2 0.9 80 -999
2009-08-07 09:55:30 51°27.154 2°59.708 47.2 0.9 80 -999
2009-08-07 09:55:40 51°27.152 2°59.709 47.2 0.9 80 -999
2009-08-07 09:55:50 51°27.15 2°59.711 47.2 0.9 80 -999
2009-08-07 09:56:00 51°27.148 2°59.711 50.3 0.8 175 -999
2009-08-07 09:56:10 51°27.146 2°59.712 50.3 0.8 175 -999
2009-08-07 09:56:20 51°27.143 2°59.712 50.3 0.8 175 -999
2009-08-07 09:56:30 51°27.141 2°59.711 50.3 0.8 175 -999
2009-08-07 09:56:40 51°27.138 2°59.71 50.3 0.8 175 -999
2009-08-07 09:56:50 51°27.135 2°59.709 50.3 0.8 175 -999
2009-08-07 09:57:00 51°27.132 2°59.707 41.6 1.19 197 -999
2009-08-07 09:57:10 51°27.129 2°59.706 41.6 1.19 197 -999
2009-08-07 09:57:20 51°27.125 2°59.704 41.6 1.19 197 -999
2009-08-07 09:57:30 51°27.122 2°59.702 41.6 1.19 197 -999
2009-08-07 09:57:40 51°27.118 2°59.7 41.6 1.19 197 -999
2009-08-07 09:57:50 51°27.114 2°59.698 41.6 1.19 197 -999
2009-08-07 09:58:00 51°27.11 2°59.695 40.6 1.5 201 -999
2009-08-07 09:58:10 51°27.107 2°59.693 40.6 1.5 201 -999
2009-08-07 09:58:20 51°27.103 2°59.69 40.6 1.5 201 -999
2009-08-07 09:58:30 51°27.098 2°59.687 40.6 1.5 201 -999
2009-08-07 09:58:40 51°27.094 2°59.684 40.6 1.5 201 -999
2009-08-07 09:58:50 51°27.09 2°59.682 40.6 1.5 201 -999
2009-08-07 09:59:00 51°27.085 2°59.679 39.2 1.69 200 -999
2009-08-07 09:59:10 51°27.081 2°59.676 39.2 1.69 200 -999
2009-08-07 09:59:20 51°27.076 2°59.673 39.2 1.69 200 -999
2009-08-07 09:59:30 51°27.072 2°59.67 39.2 1.69 200 -999
2009-08-07 09:59:40 51°27.067 2°59.667 39.2 1.69 200 -999
2009-08-07 09:59:50 51°27.062 2°59.664 39.2 1.69 200 -999
2009-08-07 10:00:00 51°27.057 2°59.661 40.2 1.89 202 -999
2009-08-07 10:00:10 51°27.053 2°59.657 40.2 1.89 202 -999
2009-08-07 10:00:20 51°27.047 2°59.654 40.2 1.89 202 -999
2009-08-07 10:00:30 51°27.042 2°59.65 40.2 1.89 202 -999
2009-08-07 10:00:40 51°27.038 2°59.647 40.2 1.89 202 -999
2009-08-07 10:00:50 51°27.034 2°59.646 40.2 1.89 202 -999
2009-08-07 10:01:00 51°27.032 2°59.645 34.2 0.69 198 -999
2009-08-07 10:01:10 51°27.031 2°59.644 34.2 0.69 198 -999
2009-08-07 10:01:20 51°27.031 2°59.645 34.2 0.69 198 -999
2009-08-07 10:01:30 51°27.032 2°59.645 34.2 0.69 198 -999
2009-08-07 10:01:40 51°27.033 2°59.646 34.2 0.69 198 -999
2009-08-07 10:01:50 51°27.035 2°59.647 34.2 0.69 198 -999
2009-08-07 10:02:00 51°27.038 2°59.649 26.8 1.1 21 -999
2009-08-07 10:02:10 51°27.041 2°59.65 26.8 1.1 21 -999
2009-08-07 10:02:20 51°27.045 2°59.652 26.8 1.1 21 -999
2009-08-07 10:02:30 51°27.048 2°59.655 26.8 1.1 21 -999
2009-08-07 10:02:40 51°27.053 2°59.657 26.8 1.1 21 -999
2009-08-07 10:02:50 51°27.057 2°59.661 26.8 1.1 21 -999
2009-08-07 10:03:00 51°27.063 2°59.664 29.6 2.1 24 -999
2009-08-07 10:03:10 51°27.068 2°59.67 29.6 2.1 24 -999
2009-08-07 10:03:20 51°27.074 2°59.674 29.6 2.1 24 -999
2009-08-07 10:03:30 51°27.079 2°59.679 29.6 2.1 24 -999
2009-08-07 10:03:40 51°27.083 2°59.682 29.6 2.1 24 -999
2009-08-07 10:03:50 51°27.086 2°59.685 29.6 2.1 24 -999
2009-08-07 10:04:00 51°27.089 2°59.687 30.8 1.1 25 -999
2009-08-07 10:04:10 51°27.091 2°59.689 30.8 1.1 25 -999
2009-08-07 10:04:20 51°27.093 2°59.69 30.8 1.1 25 -999
2009-08-07 10:04:30 51°27.095 2°59.69 30.8 1.1 25 -999
2009-08-07 10:04:40 51°27.096 2°59.69 30.8 1.1 25 -999
2009-08-07 10:04:50 51°27.097 2°59.69 30.8 1.1 25 -999
2009-08-07 10:05:00 51°27.098 2°59.691 26.1 0.29 18 -999
2009-08-07 10:05:10 51°27.098 2°59.691 26.1 0.29 18 -999
2009-08-07 10:05:20 51°27.097 2°59.69 26.1 0.29 18 -999
2009-08-07 10:05:30 51°27.097 2°59.69 26.1 0.29 18 -999
2009-08-07 10:05:40 51°27.096 2°59.69 26.1 0.29 18 -999
2009-08-07 10:05:50 51°27.095 2°59.689 26.1 0.29 18 -999
2009-08-07 10:06:00 51°27.094 2°59.688 28.1 0.5 196 -999
2009-08-07 10:06:10 51°27.093 2°59.687 28.1 0.5 196 -999
2009-08-07 10:06:20 51°27.091 2°59.686 28.1 0.5 196 -999
2009-08-07 10:06:30 51°27.089 2°59.685 28.1 0.5 196 -999
2009-08-07 10:06:40 51°27.086 2°59.683 28.1 0.5 196 -999
2009-08-07 10:06:50 51°27.083 2°59.681 28.1 0.5 196 -999
2009-08-07 10:07:00 51°27.081 2°59.679 29.6 1.19 205 -999
2009-08-07 10:07:10 51°27.078 2°59.677 29.6 1.19 205 -999
2009-08-07 10:07:20 51°27.075 2°59.675 29.6 1.19 205 -999
2009-08-07 10:07:30 51°27.071 2°59.673 29.6 1.19 205 -999
2009-08-07 10:07:40 51°27.068 2°59.67 29.6 1.19 205 -999
2009-08-07 10:07:50 51°27.065 2°59.668 29.6 1.19 205 -999
2009-08-07 10:08:00 51°27.061 2°59.666 30.6 1.39 204 -999
2009-08-07 10:08:10 51°27.057 2°59.664 30.6 1.39 204 -999
2009-08-07 10:08:20 51°27.054 2°59.662 30.6 1.39 204 -999
2009-08-07 10:08:30 51°27.051 2°59.66 30.6 1.39 204 -999
2009-08-07 10:08:40 51°27.047 2°59.658 30.6 1.39 204 -999
2009-08-07 10:08:50 51°27.044 2°59.655 30.6 1.39 204 -999
2009-08-07 10:09:00 51°27.041 2°59.653 31 1.3 205 -999
2009-08-07 10:09:10 51°27.038 2°59.651 31 1.3 205 -999
2009-08-07 10:09:20 51°27.035 2°59.649 31 1.3 205 -999
2009-08-07 10:09:30 51°27.033 2°59.648 31 1.3 205 -999
2009-08-07 10:09:40 51°27.031 2°59.647 31 1.3 205 -999
2009-08-07 10:09:50 51°27.029 2°59.646 31 1.3 205 -999
2009-08-07 10:10:00 51°27.028 2°59.645 29.8 0.5 197 -999
2009-08-07 10:10:10 51°27.027 2°59.645 29.8 0.5 197 -999
2009-08-07 10:10:20 51°27.026 2°59.645 29.8 0.5 197 -999
2009-08-07 10:10:30 51°27.025 2°59.644 29.8 0.5 197 -999
2009-08-07 10:10:40 51°27.025 2°59.644 29.8 0.5 197 -999
2009-08-07 10:10:50 51°27.024 2°59.643 29.8 0.5 197 -999
2009-08-07 10:11:00 51°27.024 2°59.643 27.6 0.1 260 -999
2009-08-07 10:11:10 51°27.024 2°59.643 27.6 0.1 260 -999
2009-08-07 10:11:20 51°27.024 2°59.643 27.6 0.1 260 -999
2009-08-07 10:11:30 51°27.024 2°59.643 27.6 0.1 260 -999
2009-08-07 10:11:40 51°27.025 2°59.643 27.6 0.1 260 -999
2009-08-07 10:11:50 51°27.027 2°59.644 27.6 0.1 260 -999
2009-08-07 10:12:00 51°27.029 2°59.646 28.8 0.9 24 -999
2009-08-07 10:12:10 51°27.032 2°59.648 28.8 0.9 24 -999
2009-08-07 10:12:20 51°27.035 2°59.651 28.8 0.9 24 -999
2009-08-07 10:12:30 51°27.039 2°59.654 28.8 0.9 24 -999
2009-08-07 10:12:40 51°27.043 2°59.657 28.8 0.9 24 -999
2009-08-07 10:12:50 51°27.047 2°59.66 28.8 0.9 24 -999
2009-08-07 10:13:00 51°27.052 2°59.664 29.8 1.89 28 -999
2009-08-07 10:13:10 51°27.056 2°59.668 29.8 1.89 28 -999
2009-08-07 10:13:20 51°27.061 2°59.673 29.8 1.89 28 -999
2009-08-07 10:13:30 51°27.066 2°59.677 29.8 1.89 28 -999
2009-08-07 10:13:40 51°27.072 2°59.68 29.8 1.89 28 -999
2009-08-07 10:13:50 51°27.078 2°59.684 29.8 1.89 28 -999
2009-08-07 10:14:00 51°27.084 2°59.687 26.8 2.29 19 -999
2009-08-07 10:14:10 51°27.089 2°59.69 26.8 2.29 19 -999
2009-08-07 10:14:20 51°27.095 2°59.693 26.8 2.29 19 -999
2009-08-07 10:14:30 51°27.102 2°59.696 26.8 2.29 19 -999
2009-08-07 10:14:40 51°27.108 2°59.698 26.8 2.29 19 -999
2009-08-07 10:14:50 51°27.113 2°59.701 26.8 2.29 19 -999
2009-08-07 10:15:00 51°27.118 2°59.704 22.3 2 22 -999
2009-08-07 10:15:10 51°27.123 2°59.706 22.3 2 22 -999
2009-08-07 10:15:20 51°27.129 2°59.708 22.3 2 22 -999
2009-08-07 10:15:30 51°27.134 2°59.71 22.3 2 22 -999
2009-08-07 10:15:40 51°27.139 2°59.711 22.3 2 22 -999
2009-08-07 10:15:50 51°27.144 2°59.712 22.3 2 22 -999
2009-08-07 10:16:00 51°27.147 2°59.712 19.6 1.19 2 -999
2009-08-07 10:16:10 51°27.15 2°59.712 19.6 1.19 2 -999
2009-08-07 10:16:20 51°27.151 2°59.711 19.6 1.19 2 -999
2009-08-07 10:16:30 51°27.153 2°59.711 19.6 1.19 2 -999
2009-08-07 10:16:40 51°27.153 2°59.71 19.6 1.19 2 -999
2009-08-07 10:16:50 51°27.153 2°59.709 19.6 1.19 2 -999
2009-08-07 10:17:00 51°27.153 2°59.707 20.3 0.5 224 -999
2009-08-07 10:17:10 51°27.152 2°59.706 20.3 0.5 224 -999
2009-08-07 10:17:20 51°27.15 2°59.704 20.3 0.5 224 -999
2009-08-07 10:17:30 51°27.149 2°59.702 20.3 0.5 224 -999
2009-08-07 10:17:40 51°27.146 2°59.7 20.3 0.5 224 -999
2009-08-07 10:17:50 51°27.143 2°59.698 20.3 0.5 224 -999
2009-08-07 10:18:00 51°27.14 2°59.697 17.8 1.19 201 -999
2009-08-07 10:18:10 51°27.137 2°59.694 17.8 1.19 201 -999
2009-08-07 10:18:20 51°27.134 2°59.692 17.8 1.19 201 -999
2009-08-07 10:18:30 51°27.13 2°59.69 17.8 1.19 201 -999
2009-08-07 10:18:40 51°27.127 2°59.688 17.8 1.19 201 -999
2009-08-07 10:18:50 51°27.123 2°59.685 17.8 1.19 201 -999
2009-08-07 10:19:00 51°27.118 2°59.683 26.8 1.6 198 -999
2009-08-07 10:19:10 51°27.114 2°59.681 26.8 1.6 198 -999
2009-08-07 10:19:20 51°27.109 2°59.679 26.8 1.6 198 -999
2009-08-07 10:19:30 51°27.104 2°59.676 26.8 1.6 198 -999
2009-08-07 10:19:40 51°27.099 2°59.673 26.8 1.6 198 -999
2009-08-07 10:19:50 51°27.094 2°59.671 26.8 1.6 198 -999
2009-08-07 10:20:00 51°27.09 2°59.669 38.2 1.8 196 -999
2009-08-07 10:20:10 51°27.085 2°59.667 38.2 1.8 196 -999
2009-08-07 10:20:20 51°27.081 2°59.666 38.2 1.8 196 -999
2009-08-07 10:20:30 51°27.078 2°59.665 38.2 1.8 196 -999
2009-08-07 10:20:40 51°27.075 2°59.665 38.2 1.8 196 -999
2009-08-07 10:20:50 51°27.073 2°59.666 38.2 1.8 196 -999
2009-08-07 10:21:00 51°27.072 2°59.667 37.1 0.4 135 -999
2009-08-07 10:21:10 51°27.072 2°59.669 37.1 0.4 135 -999
2009-08-07 10:21:20 51°27.073 2°59.67 37.1 0.4 135 -999
2009-08-07 10:21:30 51°27.075 2°59.672 37.1 0.4 135 -999
2009-08-07 10:21:40 51°27.077 2°59.673 37.1 0.4 135 -999
2009-08-07 10:21:50 51°27.08 2°59.674 37.1 0.4 135 -999
2009-08-07 10:22:00 51°27.083 2°59.676 24.5 1.3 18 -999
2009-08-07 10:22:10 51°27.086 2°59.678 24.5 1.3 18 -999
2009-08-07 10:22:20 51°27.089 2°59.68 24.5 1.3 18 -999
2009-08-07 10:22:30 51°27.093 2°59.683 24.5 1.3 18 -999
2009-08-07 10:22:40 51°27.096 2°59.687 24.5 1.3 18 -999
2009-08-07 10:22:50 51°27.1 2°59.69 24.5 1.3 18 -999
2009-08-07 10:23:00 51°27.104 2°59.694 30.6 1.6 29 -999
2009-08-07 10:23:10 51°27.108 2°59.697 30.6 1.6 29 -999
2009-08-07 10:23:20 51°27.111 2°59.701 30.6 1.6 29 -999
2009-08-07 10:23:30 51°27.115 2°59.704 30.6 1.6 29 -999
2009-08-07 10:23:40 51°27.119 2°59.707 30.6 1.6 29 -999
2009-08-07 10:23:50 51°27.123 2°59.709 30.6 1.6 29 -999
2009-08-07 10:24:00 51°27.128 2°59.71 19.3 1.69 10 -999
2009-08-07 10:24:10 51°27.132 2°59.711 19.3 1.69 10 -999
2009-08-07 10:24:20 51°27.137 2°59.712 19.3 1.69 10 -999
2009-08-07 10:24:30 51°27.142 2°59.715 19.3 1.69 10 -999
2009-08-07 10:24:40 51°27.146 2°59.719 19.3 1.69 10 -999
2009-08-07 10:24:50 51°27.151 2°59.721 19.3 1.69 10 -999
2009-08-07 10:25:00 51°27.156 2°59.724 23.6 1.89 14 -999
2009-08-07 10:25:10 51°27.161 2°59.725 23.6 1.89 14 -999
2009-08-07 10:25:20 51°27.162 2°59.725 23.6 1.89 14 -999
2009-08-07 10:25:30 51°27.162 2°59.725 23.6 1.89 14 -999
2009-08-07 10:25:40 51°27.162 2°59.724 23.6 1.89 14 -999
2009-08-07 10:25:50 51°27.162 2°59.723 23.6 1.89 14 -999
2009-08-07 10:26:00 51°27.161 2°59.722 17.8 0.29 211 -999
2009-08-07 10:26:10 51°27.16 2°59.721 17.8 0.29 211 -999
2009-08-07 10:26:20 51°27.158 2°59.719 17.8 0.29 211 -999
2009-08-07 10:26:30 51°27.157 2°59.718 17.8 0.29 211 -999
2009-08-07 10:26:40 51°27.154 2°59.716 17.8 0.29 211 -999
2009-08-07 10:26:50 51°27.153 2°59.714 17.8 0.29 211 -999
2009-08-07 10:27:00 51°27.15 2°59.712 15.5 0.8 213 -999
2009-08-07 10:27:10 51°27.149 2°59.711 15.5 0.8 213 -999
2009-08-07 10:27:20 51°27.147 2°59.709 15.5 0.8 213 -999
2009-08-07 10:27:30 51°27.146 2°59.708 15.5 0.8 213 -999
2009-08-07 10:27:40 51°27.144 2°59.707 15.5 0.8 213 -999
2009-08-07 10:27:50 51°27.143 2°59.706 15.5 0.8 213 -999
2009-08-07 10:28:00 51°27.142 2°59.707 27.8 0.1 142 -999
2009-08-07 10:28:10 51°27.142 2°59.708 27.8 0.1 142 -999
2009-08-07 10:28:20 51°27.141 2°59.711 27.8 0.1 142 -999
2009-08-07 10:28:30 51°27.141 2°59.714 27.8 0.1 142 -999
2009-08-07 10:28:40 51°27.14 2°59.718 27.8 0.1 142 -999
2009-08-07 10:28:50 51°27.139 2°59.721 27.8 0.1 142 -999
2009-08-07 10:29:00 51°27.139 2°59.724 45 0.5 95 -999
2009-08-07 10:29:10 51°27.139 2°59.726 45 0.5 95 -999
2009-08-07 10:29:20 51°27.14 2°59.727 45 0.5 95 -999
2009-08-07 10:29:30 51°27.14 2°59.727 45 0.5 95 -999
2009-08-07 10:29:40 51°27.141 2°59.726 45 0.5 95 -999
2009-08-07 10:29:50 51°27.142 2°59.725 45 0.5 95 -999
2009-08-07 10:30:00 51°27.143 2°59.723 7.9 0.69 307 -999
2009-08-07 10:30:10 51°27.145 2°59.72 7.9 0.69 307 -999
2009-08-07 10:30:20 51°27.146 2°59.717 7.9 0.69 307 -999
2009-08-07 10:30:30 51°27.148 2°59.715 7.9 0.69 307 -999
2009-08-07 10:30:40 51°27.15 2°59.712 7.9 0.69 307 -999
2009-08-07 10:30:50 51°27.151 2°59.711 7.9 0.69 307 -999
2009-08-07 10:31:00 51°27.153 2°59.711 15 0.59 359 -999
2009-08-07 10:31:10 51°27.154 2°59.712 15 0.59 359 -999
2009-08-07 10:31:20 51°27.156 2°59.715 15 0.59 359 -999
2009-08-07 10:31:30 51°27.156 2°59.72 15 0.59 359 -999
2009-08-07 10:31:40 51°27.156 2°59.727 15 0.59 359 -999
2009-08-07 10:31:50 51°27.155 2°59.734 15 0.59 359 -999
2009-08-07 10:32:00 51°27.153 2°59.737 71.7 1.1 141 -999
2009-08-07 10:32:10 51°27.15 2°59.74 71.7 1.1 141 -999
2009-08-07 10:32:20 51°27.147 2°59.743 71.7 1.1 141 -999
2009-08-07 10:32:30 51°27.143 2°59.746 71.7 1.1 141 -999
2009-08-07 10:32:40 51°27.14 2°59.748 71.7 1.1 141 -999
2009-08-07 10:32:50 51°27.137 2°59.751 71.7 1.1 141 -999
2009-08-07 10:33:00 51°27.133 2°59.752 70.2 1.19 165 -999
2009-08-07 10:33:10 51°27.13 2°59.753 70.2 1.19 165 -999
2009-08-07 10:33:20 51°27.127 2°59.754 70.2 1.19 165 -999
2009-08-07 10:33:30 51°27.123 2°59.755 70.2 1.19 165 -999
2009-08-07 10:33:40 51°27.12 2°59.755 70.2 1.19 165 -999
2009-08-07 10:33:50 51°27.117 2°59.755 70.2 1.19 165 -999
2009-08-07 10:34:00 51°27.113 2°59.755 55.2 1.3 182 -999
2009-08-07 10:34:10 51°27.11 2°59.754 55.2 1.3 182 -999
2009-08-07 10:34:20 51°27.106 2°59.753 55.2 1.3 182 -999
2009-08-07 10:34:30 51°27.102 2°59.752 55.2 1.3 182 -999
2009-08-07 10:34:40 51°27.098 2°59.751 55.2 1.3 182 -999
2009-08-07 10:34:50 51°27.094 2°59.749 55.2 1.3 182 -999
2009-08-07 10:35:00 51°27.09 2°59.748 50.1 1.5 195 -999
2009-08-07 10:35:10 51°27.086 2°59.746 50.1 1.5 195 -999
2009-08-07 10:35:20 51°27.082 2°59.745 50.1 1.5 195 -999
2009-08-07 10:35:30 51°27.077 2°59.743 50.1 1.5 195 -999
2009-08-07 10:35:40 51°27.073 2°59.741 50.1 1.5 195 -999
2009-08-07 10:35:50 51°27.069 2°59.739 50.1 1.5 195 -999
2009-08-07 10:36:00 51°27.064 2°59.736 48 1.69 197 -999
2009-08-07 10:36:10 51°27.06 2°59.734 48 1.69 197 -999
2009-08-07 10:36:20 51°27.056 2°59.732 48 1.69 197 -999
2009-08-07 10:36:30 51°27.051 2°59.729 48 1.69 197 -999
2009-08-07 10:36:40 51°27.046 2°59.727 48 1.69 197 -999
2009-08-07 10:36:50 51°27.042 2°59.724 48 1.69 197 -999
2009-08-07 10:37:00 51°27.037 2°59.722 46.1 1.8 197 -999
2009-08-07 10:37:10 51°27.032 2°59.719 46.1 1.8 197 -999
2009-08-07 10:37:20 51°27.027 2°59.717 46.1 1.8 197 -999
2009-08-07 10:37:30 51°27.024 2°59.716 46.1 1.8 197 -999
2009-08-07 10:37:40 51°27.022 2°59.716 46.1 1.8 197 -999
2009-08-07 10:37:50 51°27.021 2°59.717 46.1 1.8 197 -999
2009-08-07 10:38:00 51°27.021 2°59.717 27.5 0.2 37 -999
2009-08-07 10:38:10 51°27.022 2°59.717 27.5 0.2 37 -999
2009-08-07 10:38:20 51°27.025 2°59.717 27.5 0.2 37 -999
2009-08-07 10:38:30 51°27.031 2°59.717 27.5 0.2 37 -999
2009-08-07 10:38:40 51°27.039 2°59.718 27.5 0.2 37 -999
2009-08-07 10:38:50 51°27.049 2°59.721 27.5 0.2 37 -999
2009-08-07 10:39:00 51°27.059 2°59.723 13.8 4 8 -999
2009-08-07 10:39:10 51°27.071 2°59.726 13.8 4 8 -999
2009-08-07 10:39:20 51°27.084 2°59.728 13.8 4 8 -999
2009-08-07 10:39:30 51°27.097 2°59.732 13.8 4 8 -999
2009-08-07 10:39:40 51°27.11 2°59.737 13.8 4 8 -999
2009-08-07 10:39:50 51°27.123 2°59.747 13.8 4 8 -999
2009-08-07 10:40:00 51°27.132 2°59.761 32.5 4.7 49 -999
2009-08-07 10:40:10 51°27.136 2°59.78 32.5 4.7 49 -999
2009-08-07 10:40:20 51°27.136 2°59.801 32.5 4.7 49 -999
2009-08-07 10:40:30 51°27.134 2°59.824 32.5 4.7 49 -999
2009-08-07 10:40:40 51°27.134 2°59.847 32.5 4.7 49 -999
2009-08-07 10:40:50 51°27.137 2°59.87 32.5 4.7 49 -999
2009-08-07 10:41:00 51°27.142 2°59.891 63 5.09 67 -999
2009-08-07 10:41:10 51°27.147 2°59.913 63 5.09 67 -999
2009-08-07 10:41:20 51°27.152 2°59.935 63 5.09 67 -999
2009-08-07 10:41:30 51°27.155 2°59.955 63 5.09 67 -999
2009-08-07 10:41:40 51°27.158 2°59.972 63 5.09 67 -999
2009-08-07 10:41:50 51°27.158 2°59.983 63 5.09 67 -999
2009-08-07 10:42:00 51°27.159 2°59.991 60.1 1.69 90 -999
2009-08-07 10:42:10 51°27.158 2°59.997 60.1 1.69 90 -999
2009-08-07 10:42:20 51°27.158 3°0.002 60.1 1.69 90 -999
2009-08-07 10:42:30 51°27.157 3°0.006 60.1 1.69 90 -999
2009-08-07 10:42:40 51°27.157 3°0.009 60.1 1.69 90 -999
2009-08-07 10:42:50 51°27.156 3°0.011 60.1 1.69 90 -999
2009-08-07 10:43:00 51°27.156 3°0.013 43.2 0.5 133 -999
2009-08-07 10:43:10 51°27.154 3°0.014 43.2 0.5 133 -999
2009-08-07 10:43:20 51°27.153 3°0.015 43.2 0.5 133 -999
2009-08-07 10:43:30 51°27.151 3°0.015 43.2 0.5 133 -999
2009-08-07 10:43:40 51°27.149 3°0.015 43.2 0.5 133 -999
2009-08-07 10:43:50 51°27.147 3°0.015 43.2 0.5 133 -999
2009-08-07 10:44:00 51°27.145 3°0.015 37.1 0.69 185 -999
2009-08-07 10:44:10 51°27.143 3°0.015 37.1 0.69 185 -999
2009-08-07 10:44:20 51°27.14 3°0.014 37.1 0.69 185 -999
2009-08-07 10:44:30 51°27.138 3°0.013 37.1 0.69 185 -999
2009-08-07 10:44:40 51°27.135 3°0.012 37.1 0.69 185 -999
2009-08-07 10:44:50 51°27.132 3°0.011 37.1 0.69 185 -999
2009-08-07 10:45:00 51°27.129 3°0.01 36.8 1.1 197 -999
2009-08-07 10:45:10 51°27.126 3°0.009 36.8 1.1 197 -999
2009-08-07 10:45:20 51°27.122 3°0.008 36.8 1.1 197 -999
2009-08-07 10:45:30 51°27.119 3°0.006 36.8 1.1 197 -999
2009-08-07 10:45:40 51°27.115 3°0.004 36.8 1.1 197 -999
2009-08-07 10:45:50 51°27.112 3°0.002 36.8 1.1 197 -999
2009-08-07 10:46:00 51°27.108 3°0 38.3 1.5 194 -999
2009-08-07 10:46:10 51°27.104 2°59.998 38.3 1.5 194 -999
2009-08-07 10:46:20 51°27.1 2°59.996 38.3 1.5 194 -999
2009-08-07 10:46:30 51°27.096 2°59.994 38.3 1.5 194 -999
2009-08-07 10:46:40 51°27.092 2°59.992 38.3 1.5 194 -999
2009-08-07 10:46:50 51°27.088 2°59.989 38.3 1.5 194 -999
2009-08-07 10:47:00 51°27.084 2°59.987 38.1 1.69 201 -999
2009-08-07 10:47:10 51°27.079 2°59.984 38.1 1.69 201 -999
2009-08-07 10:47:20 51°27.075 2°59.982 38.1 1.69 201 -999
2009-08-07 10:47:30 51°27.07 2°59.979 38.1 1.69 201 -999
2009-08-07 10:47:40 51°27.066 2°59.976 38.1 1.69 201 -999
2009-08-07 10:47:50 51°27.061 2°59.974 38.1 1.69 201 -999
2009-08-07 10:48:00 51°27.056 2°59.972 39.3 1.89 199 -999
2009-08-07 10:48:10 51°27.052 2°59.969 39.3 1.89 199 -999
2009-08-07 10:48:20 51°27.048 2°59.968 39.3 1.89 199 -999
2009-08-07 10:48:30 51°27.045 2°59.967 39.3 1.89 199 -999
2009-08-07 10:48:40 51°27.042 2°59.967 39.3 1.89 199 -999
2009-08-07 10:48:50 51°27.04 2°59.967 39.3 1.89 199 -999
2009-08-07 10:49:00 51°27.039 2°59.966 26.3 0.5 194 -999
2009-08-07 10:49:10 51°27.038 2°59.965 26.3 0.5 194 -999
2009-08-07 10:49:20 51°27.037 2°59.964 26.3 0.5 194 -999
2009-08-07 10:49:30 51°27.037 2°59.963 26.3 0.5 194 -999
2009-08-07 10:49:40 51°27.037 2°59.961 26.3 0.5 194 -999
2009-08-07 10:49:50 51°27.038 2°59.958 26.3 0.5 194 -999
2009-08-07 10:50:00 51°27.039 2°59.955 355.6 0.69 296 -999
2009-08-07 10:50:10 51°27.04 2°59.952 355.6 0.69 296 -999
2009-08-07 10:50:20 51°27.042 2°59.949 355.6 0.69 296 -999
2009-08-07 10:50:30 51°27.044 2°59.946 355.6 0.69 296 -999
2009-08-07 10:50:40 51°27.046 2°59.943 355.6 0.69 296 -999
2009-08-07 10:50:50 51°27.049 2°59.943 355.6 0.69 296 -999
2009-08-07 10:51:00 51°27.051 2°59.944 18 0.8 28 -999
2009-08-07 10:51:10 51°27.053 2°59.947 18 0.8 28 -999
2009-08-07 10:51:20 51°27.054 2°59.951 18 0.8 28 -999
2009-08-07 10:51:30 51°27.054 2°59.957 18 0.8 28 -999
2009-08-07 10:51:40 51°27.054 2°59.964 18 0.8 28 -999
2009-08-07 10:51:50 51°27.055 2°59.971 18 0.8 28 -999
2009-08-07 10:52:00 51°27.055 2°59.977 54.7 1.3 77 -999
2009-08-07 10:52:10 51°27.057 2°59.982 54.7 1.3 77 -999
2009-08-07 10:52:20 51°27.059 2°59.986 54.7 1.3 77 -999
2009-08-07 10:52:30 51°27.061 2°59.99 54.7 1.3 77 -999
2009-08-07 10:52:40 51°27.064 2°59.994 54.7 1.3 77 -999
2009-08-07 10:52:50 51°27.067 2°59.998 54.7 1.3 77 -999
2009-08-07 10:53:00 51°27.071 3°0.002 30.6 1.6 37 -999
2009-08-07 10:53:10 51°27.074 3°0.006 30.6 1.6 37 -999
2009-08-07 10:53:20 51°27.078 3°0.011 30.6 1.6 37 -999
2009-08-07 10:53:30 51°27.082 3°0.016 30.6 1.6 37 -999
2009-08-07 10:53:40 51°27.086 3°0.021 30.6 1.6 37 -999
2009-08-07 10:53:50 51°27.09 3°0.027 30.6 1.6 37 -999
2009-08-07 10:54:00 51°27.094 3°0.033 38.2 2 45 -999
2009-08-07 10:54:10 51°27.098 3°0.04 38.2 2 45 -999
2009-08-07 10:54:20 51°27.102 3°0.047 38.2 2 45 -999
2009-08-07 10:54:30 51°27.105 3°0.054 38.2 2 45 -999
2009-08-07 10:54:40 51°27.109 3°0.062 38.2 2 45 -999
2009-08-07 10:54:50 51°27.113 3°0.07 38.2 2 45 -999
2009-08-07 10:55:00 51°27.116 3°0.079 43.7 2.29 54 -999
2009-08-07 10:55:10 51°27.12 3°0.086 43.7 2.29 54 -999
2009-08-07 10:55:20 51°27.124 3°0.094 43.7 2.29 54 -999
2009-08-07 10:55:30 51°27.127 3°0.102 43.7 2.29 54 -999
2009-08-07 10:55:40 51°27.131 3°0.109 43.7 2.29 54 -999